DateTimeUTC,F1_A11,F1_S11,BsB_S11,BsG_S11,BsR_S11,BbsB_S11,BbsG_S11,BbsR_S11,BaB_A11,BaG_A11,BaR_A11,T_S11,U_S11,P_S11,T1_A11
2020-02-17T00:00:00Z,00000380,21000600,,,,,,,,,,23.9,00.0,0611.3,31.0
2020-02-17T00:01:00Z,00000380,21000600,,,,,,,,,,24.0,00.0,0611.3,31.0
2020-02-17T00:02:00Z,00000380,21000600,,,,,,,,,,24.0,00.0,0611.3,31.0
2020-02-17T00:03:00Z,00000380,61000600,,,,,,,,,,24.0,00.0,0611.3,31.0
2020-02-17T00:04:00Z,00000380,41000600,0000.50,0000.07,0000.49,-000.64,0000.08,-000.29,0000.11,-000.08,0000.11,23.8,00.0,0612.1,31.0
2020-02-17T00:05:00Z,00000380,01000600,-000.82,0000.21,-000.01,0000.31,-000.48,0000.25,0000.01,0000.18,-000.01,23.8,00.0,0612.2,31.0
2020-02-17T00:06:00Z,00000380,01000600,-000.35,0000.53,-000.18,-000.16,-000.07,-000.17,0000.02,0000.02,0000.21,23.8,00.0,0612.1,31.0
2020-02-17T00:07:00Z,00000380,01000600,0000.35,0000.20,0000.10,0000.17,0000.46,0000.44,0000.04,-000.04,0000.04,23.8,00.0,0612.1,31.0
2020-02-17T00:08:00Z,00000380,01000600,0000.85,0000.47,0000.13,-000.50,-000.21,0000.30,0000.26,0000.28,0000.16,23.7,00.0,0612.1,31.0
2020-02-17T00:09:00Z,00000380,01000600,-000.10,-000.08,0000.05,0000.54,-000.33,-000.04,0000.17,0000.11,-000.01,23.7,00.0,0612.1,31.0
2020-02-17T00:10:00Z,00000380,01000600,0000.72,0000.59,0000.30,-000.48,0000.21,0000.18,-000.04,0000.04,0000.11,23.7,00.0,0612.1,31.0
2020-02-17T00:11:00Z,00000380,01000600,0001.14,0000.24,-000.04,0000.20,0000.28,0000.03,0000.13,0000.04,0000.03,23.7,00.0,0612.0,30.9
2020-02-17T00:12:00Z,00000380,01000600,0000.43,0000.24,0000.28,-000.91,0000.13,0000.02,-000.17,-000.30,-000.12,23.7,00.0,0612.0,30.9
2020-02-17T00:13:00Z,00000380,01000600,-000.36,0000.41,-000.10,-000.21,0000.20,-000.14,0000.06,0000.11,-000.02,23.7,00.0,0612.0,30.9
2020-02-17T00:14:00Z,00000380,01000600,0000.74,-000.33,0000.46,-000.36,-000.14,0000.25,0000.15,0000.19,0000.08,23.7,00.0,0612.0,30.9
2020-02-17T00:15:00Z,00000380,01000600,0000.62,0000.45,0000.50,-000.34,0000.12,-000.01,0000.25,0000.32,0000.08,23.7,00.0,0612.0,30.9
2020-02-17T00:16:00Z,00000380,01000600,-000.07,0000.53,0000.35,0000.87,0000.39,0000.04,-000.06,-000.22,-000.01,23.7,00.0,0612.0,30.9
2020-02-17T00:17:00Z,00000380,01000600,0000.47,0000.51,-000.05,-000.21,0000.20,-000.08,0000.12,0000.19,0000.09,23.7,00.0,0612.0,30.9
2020-02-17T00:18:00Z,00000380,01000600,0000.25,0000.10,0000.28,-000.43,-000.43,0000.35,0000.19,0000.23,0000.13,23.7,00.0,0612.0,30.9
2020-02-17T00:19:00Z,00000380,01000600,0000.69,0000.78,-000.06,0000.35,-000.21,0000.08,0000.01,0000.03,0000.07,23.7,00.0,0612.0,30.9
2020-02-17T00:20:00Z,00000380,01000600,-001.12,0000.76,0000.20,0000.06,-000.15,0000.44,0000.26,0000.16,0000.12,23.7,00.0,0611.9,31.0
2020-02-17T00:21:00Z,00000380,01000600,0000.56,0000.59,0000.61,0000.43,0000.12,0000.05,0000.05,0000.09,-000.03,23.7,00.0,0611.9,30.9
2020-02-17T00:22:00Z,00000380,01000600,0000.29,0000.68,0000.91,-001.00,0000.08,0000.08,0000.02,0000.09,0000.03,23.7,00.0,0611.9,30.9
2020-02-17T00:23:00Z,00000380,01000600,-000.39,-000.06,0000.56,-000.36,-000.02,0000.26,0000.02,-000.19,0000.02,23.7,00.0,0611.9,30.9
2020-02-17T00:24:00Z,00000380,01000600,0000.70,0000.85,0000.21,-000.32,0000.14,-000.09,0000.03,0000.18,0000.05,23.7,00.0,0611.9,30.9
2020-02-17T00:25:00Z,00000380,01000600,-000.13,0000.75,0000.09,-000.89,0000.15,0000.01,-000.11,-000.07,0000.02,23.7,00.0,0611.9,30.9
2020-02-17T00:26:00Z,00000380,01000600,-000.49,0001.23,0000.28,-000.76,0000.51,0000.27,0000.24,0000.03,0000.05,23.7,00.0,0611.8,30.9
2020-02-17T00:27:00Z,00000380,01000600,0001.15,-000.31,0000.46,0000.07,0000.67,-000.15,-000.00,-000.24,-000.20,23.7,00.0,0611.8,30.9
2020-02-17T00:28:00Z,00000380,01000600,-000.64,0000.50,-000.17,0000.29,-000.32,0000.14,-000.13,0000.11,0000.08,23.7,00.0,0611.9,30.9
2020-02-17T00:29:00Z,00000380,01000600,-000.36,0000.31,0000.28,-000.01,-000.24,0000.00,0000.02,-000.11,-000.15,23.7,00.0,0611.9,30.9
2020-02-17T00:30:00Z,00000380,01000600,-000.50,0000.34,0000.63,-000.47,0000.11,0000.30,-000.01,0000.30,0000.27,23.7,00.0,0611.9,30.9
2020-02-17T00:31:00Z,00000380,01000600,0000.11,0000.40,0000.24,-000.94,0000.05,0000.15,-000.00,-000.29,-000.08,23.7,00.0,0612.0,30.9
2020-02-17T00:32:00Z,00000380,01000600,0000.58,-000.27,-000.21,0000.35,-000.09,-000.18,0000.10,0000.25,0000.01,23.7,00.0,0612.0,30.9
2020-02-17T00:33:00Z,00000380,01000600,-000.49,-000.03,-000.02,0000.00,0000.02,-000.10,0000.10,0000.01,0000.10,23.7,00.0,0612.0,31.0
2020-02-17T00:34:00Z,00000380,01000600,-000.20,0000.16,-000.41,-000.47,0000.19,-000.13,0000.03,0000.16,-000.11,23.7,00.0,0612.0,31.0
2020-02-17T00:35:00Z,00000380,01000600,0000.87,0000.72,0000.60,-000.27,-000.17,-000.04,-000.04,-000.07,0000.05,23.7,00.0,0612.1,31.0
2020-02-17T00:36:00Z,00000380,01000600,0000.49,0000.81,0000.57,0000.33,-000.20,0000.48,0000.01,-000.01,0000.16,23.7,00.0,0612.1,31.0
2020-02-17T00:37:00Z,00000380,01000600,0000.11,0000.29,0000.08,-000.30,0000.15,0000.66,-000.09,0000.00,-000.01,23.7,00.0,0612.1,31.0
2020-02-17T00:38:00Z,00000380,01000600,-000.04,-000.11,0000.16,-000.16,-000.02,-000.22,0000.04,-000.01,-000.13,23.7,00.0,0612.1,31.0
2020-02-17T00:39:00Z,00000380,01000600,0000.77,0000.49,0000.05,-000.58,-000.01,-000.13,-000.02,-000.10,0000.11,23.7,00.0,0612.1,30.9
2020-02-17T00:40:00Z,00000380,01000600,-000.78,0000.23,0000.07,-000.51,-000.21,0000.13,0000.05,0000.20,0000.01,23.7,00.0,0612.1,31.0
2020-02-17T00:41:00Z,00000380,01000600,0000.95,0000.50,-000.10,-000.25,-000.19,0000.36,0000.13,0000.14,-000.05,23.7,00.0,0612.1,30.9
2020-02-17T00:42:00Z,00000380,01000600,0001.09,0000.23,0000.02,-000.35,-000.22,0000.03,-000.22,-000.52,-000.09,23.7,00.0,0612.1,30.9
2020-02-17T00:43:00Z,00000380,01000600,0001.13,0000.13,0000.87,0000.12,0000.39,-000.22,0000.03,0000.03,0000.03,23.7,00.0,0612.1,30.9
2020-02-17T00:44:00Z,00000380,01000600,0000.09,0000.27,-000.03,0000.09,0000.00,0000.37,0000.14,0000.37,0000.02,23.7,00.0,0612.1,30.9
2020-02-17T00:45:00Z,00000380,01000600,0000.75,0000.35,0000.30,0000.63,0000.24,-000.25,0000.09,0000.13,0000.21,23.7,00.0,0612.1,30.9
2020-02-17T00:46:00Z,00000380,01000600,0000.49,0000.02,-000.34,-000.67,0000.15,0000.13,0000.06,-000.11,-000.19,23.7,00.0,0612.2,31.0
2020-02-17T00:47:00Z,00000380,01000600,-000.16,-000.40,0000.73,-000.20,-000.03,0000.12,0000.09,0000.23,0000.22,23.7,00.0,0612.2,31.0
2020-02-17T00:48:00Z,00000380,01000600,0001.25,0000.69,0000.07,0000.06,0000.18,0000.13,0000.09,0000.12,0000.08,23.7,00.0,0612.2,31.0
2020-02-17T00:49:00Z,00000380,01000600,0000.71,0000.61,-000.19,-000.20,0000.05,0000.16,-000.11,0000.05,0000.02,23.7,00.0,0612.2,31.0
2020-02-17T00:50:00Z,00000380,01000600,-001.45,0000.37,0000.19,-000.61,0000.54,0000.05,0000.10,-000.06,0000.04,23.7,00.0,0612.2,30.9
2020-02-17T00:51:00Z,00000380,01000600,0000.51,0000.24,0000.34,-000.15,0000.32,0000.28,-000.02,0000.07,-000.01,23.7,00.0,0612.2,31.0
2020-02-17T00:52:00Z,00000380,01000600,-000.11,0000.54,0000.23,-001.05,0000.09,-000.14,0000.03,-000.16,-000.13,23.7,00.0,0612.2,31.0
2020-02-17T00:53:00Z,00000380,01000600,0001.22,0000.39,0000.30,-000.84,0000.27,-000.04,-000.15,0000.03,0000.11,23.7,00.0,0612.3,31.0
2020-02-17T00:54:00Z,00000380,01000600,0000.65,0000.33,0000.21,0000.77,0000.08,0000.25,-000.09,-000.17,-000.17,23.8,00.0,0612.3,31.0
2020-02-17T00:55:00Z,00000380,01000600,0000.37,0000.51,-000.27,0000.54,0000.14,-000.07,-000.03,0000.04,0000.06,23.8,00.0,0612.3,31.0
2020-02-17T00:56:00Z,00000380,01000600,0000.59,0000.51,0000.71,-000.30,-000.27,0000.13,0000.04,-000.14,-000.01,23.7,00.0,0612.3,31.0
2020-02-17T00:57:00Z,00000380,41000600,,,,,,,,,,23.8,00.0,0612.3,30.9
2020-02-17T00:58:00Z,00000380,61000600,,,,,,,,,,23.8,00.0,0611.4,30.9
2020-02-17T00:59:00Z,00000380,21000600,,,,,,,,,,23.9,00.0,0611.4,30.9
2020-02-17T01:00:00Z,00000380,21000600,,,,,,,,,,23.9,00.0,0611.4,31.0
2020-02-17T01:01:00Z,00000380,21000600,,,,,,,,,,24.0,00.0,0611.4,30.9
2020-02-17T01:02:00Z,00000380,21000600,,,,,,,,,,24.0,00.0,0611.4,31.0
2020-02-17T01:03:00Z,00000380,61000600,,,,,,,,,,24.0,00.0,0611.4,31.0
2020-02-17T01:04:00Z,00000380,41000600,0000.39,0000.01,0000.12,0000.35,0000.25,0000.36,0000.14,-000.13,0000.06,23.8,00.0,0612.3,31.0
2020-02-17T01:05:00Z,00000380,01000600,0000.94,0000.63,0000.28,0000.79,-000.05,0000.22,0000.03,0000.22,0000.05,23.8,00.0,0612.4,30.9
2020-02-17T01:06:00Z,00000380,01000600,-000.03,-000.03,-000.22,0000.90,-000.16,0000.85,0000.11,-000.13,0000.02,23.8,00.0,0612.4,30.9
2020-02-17T01:07:00Z,00000380,01000600,0000.46,-000.21,0000.18,0000.22,0000.27,0000.04,-000.19,-000.01,-000.06,23.8,00.0,0612.4,30.9
2020-02-17T01:08:00Z,00000380,01000600,0000.25,0000.14,0000.80,-000.34,0000.28,0000.09,0000.10,0000.07,0000.02,23.8,00.0,0612.4,30.9
2020-02-17T01:09:00Z,00000380,01000600,-001.65,-000.30,0000.00,-000.09,0000.29,-000.13,0000.06,0000.09,0000.02,23.7,00.0,0612.4,30.9
2020-02-17T01:10:00Z,00000380,01000600,0000.37,0000.05,0000.35,-000.56,0000.01,0000.03,-000.18,0000.01,-000.07,23.7,00.0,0612.4,30.9
2020-02-17T01:11:00Z,00000380,01000600,0000.12,0000.03,-000.11,-000.18,-000.11,0000.15,0000.11,-000.03,-000.04,23.7,00.0,0612.4,30.9
2020-02-17T01:12:00Z,00000380,01000600,-000.21,0000.03,-000.29,0000.29,0000.02,-000.16,-000.18,-000.15,0000.16,23.7,00.0,0612.4,30.9
2020-02-17T01:13:00Z,00000380,01000600,0000.18,0000.16,-000.25,-000.57,0000.56,-000.03,0000.35,-000.01,-000.12,23.7,00.0,0612.4,30.9
2020-02-17T01:14:00Z,00000380,01000600,-000.63,-000.50,0000.61,-000.32,-000.53,0000.02,0000.01,0000.06,0000.21,23.7,00.0,0612.4,30.9
2020-02-17T01:15:00Z,00000380,01000600,0000.87,0000.73,0000.62,-000.00,-000.20,0000.53,0000.06,0000.33,-000.03,23.7,00.0,0612.4,30.9
2020-02-17T01:16:00Z,00000380,01000600,0000.50,0000.12,-000.22,-000.96,-000.01,0000.33,-000.13,-000.51,-000.05,23.7,00.0,0612.4,31.0
2020-02-17T01:17:00Z,00000380,01000600,-000.80,0000.51,-000.01,-000.36,-000.27,0000.03,0000.20,0000.36,0000.19,23.7,00.0,0612.4,30.9
2020-02-17T01:18:00Z,00000380,01000600,-000.17,0000.21,-000.38,-000.54,0000.34,0000.71,0000.05,0000.06,-000.10,23.7,00.0,0612.4,30.9
2020-02-17T01:19:00Z,00000380,01000600,0000.43,-000.17,0000.08,-000.03,-000.07,-000.06,-000.11,0000.15,0000.03,23.7,00.0,0612.3,30.9
2020-02-17T01:20:00Z,00000380,01000600,0000.19,-000.15,0000.41,-000.21,-000.19,0000.06,0000.14,-000.01,0000.01,23.7,00.0,0612.4,30.9
2020-02-17T01:21:00Z,00000380,01000600,-000.14,0000.56,0000.43,-000.06,-000.05,-000.06,0000.04,-000.07,0000.08,23.7,00.0,0612.4,30.9
2020-02-17T01:22:00Z,00000380,01000600,-001.08,-000.17,0000.90,-000.27,0000.13,0000.31,-000.23,0000.05,-000.10,23.7,00.0,0612.4,30.9
2020-02-17T01:23:00Z,00000380,01000600,-000.19,-000.42,-000.07,0000.09,0000.14,0000.31,0000.02,0000.10,-000.03,23.7,00.0,0612.4,30.9
2020-02-17T01:24:00Z,00000380,01000600,-000.18,-000.31,-000.32,0000.21,-000.04,0000.35,0000.02,-000.15,0000.15,23.7,00.0,0612.4,30.9
2020-02-17T01:25:00Z,00000380,01000600,-000.82,-000.38,-000.44,0000.37,0000.02,0000.10,-000.03,0000.05,-000.08,23.7,00.0,0612.4,30.9
2020-02-17T01:26:00Z,00000380,01000600,0000.28,-000.10,-000.01,0000.91,0000.07,0000.06,-000.03,-000.22,-000.08,23.6,00.0,0612.5,30.9
2020-02-17T01:27:00Z,00000380,01000600,-001.05,-000.02,-000.36,0000.66,-000.17,0000.09,-000.22,-000.29,-000.12,23.6,00.0,0612.5,30.9
2020-02-17T01:28:00Z,00000380,01000600,-000.12,0000.60,0000.14,-000.44,0000.17,-000.14,0000.11,0000.11,-000.07,23.6,00.0,0612.4,30.9
2020-02-17T01:29:00Z,00000380,01000600,0000.18,-000.00,-000.49,0000.18,-000.06,0000.13,0000.02,0000.09,0000.05,23.6,00.0,0612.5,30.9
2020-02-17T01:30:00Z,00000380,01000600,-000.74,-000.54,0000.21,-000.13,0000.15,0000.46,0000.15,0000.28,0000.23,23.6,00.0,0612.5,30.9
2020-02-17T01:31:00Z,00000380,01000600,0000.27,0000.75,-000.05,0000.46,-000.22,-000.24,-000.07,-000.27,-000.12,23.6,00.0,0612.5,30.9
2020-02-17T01:32:00Z,00000380,01000600,-000.45,0000.18,-000.31,-000.06,0000.29,0000.09,0000.17,0000.22,0000.11,23.6,00.0,0612.5,30.9
2020-02-17T01:33:00Z,00000380,01000600,-000.24,0000.32,-000.21,0000.57,-000.21,-000.03,0000.08,-000.06,0000.07,23.6,00.0,0612.5,30.9
2020-02-17T01:34:00Z,00000380,01000600,0000.53,0000.28,0000.10,0000.56,0000.02,0000.18,-000.09,0000.10,-000.06,23.6,00.0,0612.5,30.9
2020-02-17T01:35:00Z,00000380,01000600,-000.21,-000.20,-000.12,0000.34,0000.44,0000.40,-000.19,0000.04,0000.12,23.6,00.0,0612.5,30.9
2020-02-17T01:36:00Z,00000380,01000600,-000.05,0000.38,0000.18,0000.62,-000.34,0000.40,0000.04,0000.08,-000.01,23.6,00.0,0612.6,30.9
2020-02-17T01:37:00Z,00000380,01000600,-001.07,-000.22,-000.31,-000.93,-000.21,0000.31,0000.09,-000.18,-000.15,23.6,00.0,0612.6,30.9
2020-02-17T01:38:00Z,00000380,01000600,-000.09,-000.11,-000.07,0000.20,-000.07,0000.30,-000.14,-000.11,-000.09,23.6,00.0,0612.6,30.9
2020-02-17T01:39:00Z,00000380,01000600,-000.16,-000.01,0000.57,-000.37,0000.12,0000.11,0000.05,0000.00,-000.00,23.6,00.0,0612.6,30.9
2020-02-17T01:40:00Z,00000380,01000600,0000.83,-000.25,-000.04,0000.58,0000.24,0000.41,0000.17,0000.05,0000.17,23.6,00.0,0612.6,30.9
2020-02-17T01:41:00Z,00000380,01000600,-000.19,-000.03,-000.40,-000.93,0000.08,0000.16,-000.07,0000.11,-000.12,23.6,00.0,0612.6,30.9
2020-02-17T01:42:00Z,00000380,01000600,0000.83,-000.19,-000.32,0000.53,0000.19,0000.05,-000.11,-000.31,-000.02,23.6,00.0,0612.6,30.9
2020-02-17T01:43:00Z,00000380,01000600,-000.45,0000.24,0000.23,0000.62,0000.03,-000.06,0000.06,0000.07,-000.03,23.6,00.0,0612.6,30.9
2020-02-17T01:44:00Z,00000380,01000600,0000.46,0000.11,0000.28,0000.54,-000.01,0000.06,0000.08,0000.15,-000.01,23.6,00.0,0612.6,30.9
2020-02-17T01:45:00Z,00000380,01000600,0001.33,0000.55,-000.02,-000.34,-000.04,0000.23,0000.05,0000.11,0000.15,23.6,00.0,0612.7,30.9
2020-02-17T01:46:00Z,00000380,01000600,0000.11,0000.38,0000.62,-000.39,0000.07,0000.12,-000.16,-000.22,-000.15,23.6,00.0,0612.7,30.9
2020-02-17T01:47:00Z,00000380,01000600,-001.72,-000.33,-000.12,0000.94,0000.11,-000.04,0000.17,0000.19,0000.05,23.6,00.0,0612.7,30.9
2020-02-17T01:48:00Z,00000380,01000600,0000.14,-000.15,-000.15,0000.45,-000.18,0000.16,-000.07,-000.02,0000.21,23.6,00.0,0612.7,30.9
2020-02-17T01:49:00Z,00000380,01000600,-000.59,0000.01,-000.47,0000.06,0000.31,0000.16,0000.15,0000.18,-000.07,23.6,00.0,0612.6,30.9
2020-02-17T01:50:00Z,00000380,01000600,-000.80,0000.44,0000.32,0000.20,-000.39,0000.53,0000.04,0000.02,0000.19,23.6,00.0,0612.6,30.9
2020-02-17T01:51:00Z,00000380,01000600,-000.59,0000.15,0000.54,0000.50,-000.32,-000.00,0000.08,0000.10,-000.05,23.6,00.0,0612.6,30.9
2020-02-17T01:52:00Z,00000380,01000600,0000.42,0000.35,0000.32,-000.34,0000.22,0000.05,-000.02,0000.10,0000.13,23.6,00.0,0612.6,30.9
2020-02-17T01:53:00Z,00000380,01000600,-000.19,0000.04,0000.00,0000.68,0000.04,0000.28,0000.08,-000.05,-000.11,23.6,00.0,0612.6,30.9
2020-02-17T01:54:00Z,00000380,01000600,-000.20,0000.00,-000.05,-000.58,0000.29,0000.31,-000.01,0000.04,-000.04,23.6,00.0,0612.6,30.9
2020-02-17T01:55:00Z,00000380,01000600,0001.05,0000.07,0000.73,0000.03,-000.22,0000.12,0000.12,0000.04,0000.13,23.5,00.0,0612.6,30.9
2020-02-17T01:56:00Z,00000380,01000600,0000.35,0000.05,-000.22,0000.08,0000.18,0000.13,0000.13,0000.12,-000.00,23.5,00.0,0612.6,30.9
2020-02-17T01:57:00Z,00000380,41000600,,,,,,,,,,23.5,00.0,0612.5,30.9
2020-02-17T01:58:00Z,00000380,61000600,,,,,,,,,,23.6,00.0,0611.7,30.9
2020-02-17T01:59:00Z,00000380,21000600,,,,,,,,,,23.7,00.0,0611.6,30.9
2020-02-17T02:00:00Z,00000380,21000600,,,,,,,,,,23.7,00.0,0611.6,30.9
2020-02-17T02:01:00Z,00000380,21000600,,,,,,,,,,23.8,00.0,0611.6,30.9
2020-02-17T02:02:00Z,00000380,21000600,,,,,,,,,,23.8,00.0,0611.6,30.9
2020-02-17T02:03:00Z,00000380,61000600,,,,,,,,,,23.8,00.0,0611.6,30.9
2020-02-17T02:04:00Z,00000380,41000600,-000.49,0000.58,0000.43,-000.15,0000.26,0000.11,0000.15,0000.01,0000.11,23.6,00.0,0612.3,30.9
2020-02-17T02:05:00Z,00000380,01000600,0000.13,-000.10,0000.33,0000.14,-000.19,0000.13,0000.25,0000.12,0000.10,23.6,00.0,0612.4,30.9
2020-02-17T02:06:00Z,00000380,01000600,0001.26,0000.30,0000.29,-000.15,0000.19,-000.11,0000.01,0000.12,0000.06,23.5,00.0,0612.3,30.9
2020-02-17T02:07:00Z,00000380,01000600,0000.32,-000.21,-000.52,-000.21,0000.20,0000.21,0000.07,0000.20,0000.20,23.5,00.0,0612.3,30.9
2020-02-17T02:08:00Z,00000380,01000600,0000.08,-000.19,-000.11,-000.55,0000.23,0000.16,0000.05,-000.12,-000.13,23.5,00.0,0612.3,30.9
2020-02-17T02:09:00Z,00000380,01000600,-000.27,-000.24,0001.01,0000.20,0000.33,0000.67,0000.13,0000.19,0000.24,23.5,00.0,0612.3,30.9
2020-02-17T02:10:00Z,00000380,01000600,0000.71,-000.03,-000.11,-000.95,0000.17,0000.06,-000.03,0000.05,-000.06,23.5,00.0,0612.2,30.9
2020-02-17T02:11:00Z,00000380,01000600,-000.10,0000.05,0000.59,-000.20,0000.03,-000.12,0000.18,0000.17,0000.10,23.5,00.0,0612.3,30.9
2020-02-17T02:12:00Z,00000380,01000600,0000.65,0000.05,0000.68,-000.80,0000.02,0000.22,-000.23,-000.31,-000.20,23.5,00.0,0612.3,30.9
2020-02-17T02:13:00Z,00000380,01000600,0000.63,0000.21,0000.28,-001.23,0000.37,-000.13,0000.17,-000.04,-000.00,23.4,00.0,0612.3,30.9
2020-02-17T02:14:00Z,00000380,01000600,0000.17,0000.03,0000.41,-001.11,0000.06,0000.54,0000.13,0000.17,0000.10,23.4,00.0,0612.3,30.9
2020-02-17T02:15:00Z,00000380,01000600,0000.63,0000.17,-000.18,-000.27,0000.15,-000.10,0000.06,0000.30,0000.05,23.4,00.0,0612.3,30.9
2020-02-17T02:16:00Z,00000380,01000600,0000.30,-000.12,0000.32,-000.53,0000.06,-000.25,-000.18,-000.20,-000.06,23.5,00.0,0612.2,30.9
2020-02-17T02:17:00Z,00000380,01000600,0000.23,-000.46,0000.85,-000.34,0000.15,0000.18,0000.31,0000.20,0000.24,23.5,00.0,0612.3,30.9
2020-02-17T02:18:00Z,00000380,01000600,0000.06,-000.53,0000.53,-000.74,0000.45,0000.14,-000.04,0000.19,0000.03,23.5,00.0,0612.3,30.9
2020-02-17T02:19:00Z,00000380,01000600,0001.34,0000.20,0000.38,-000.77,0000.26,-000.66,0000.08,-000.05,-000.16,23.5,00.0,0612.3,30.9
2020-02-17T02:20:00Z,00000380,01000600,0000.57,0000.10,0000.12,0000.58,-000.17,0000.45,0000.01,0000.12,0000.05,23.5,00.0,0612.3,30.9
2020-02-17T02:21:00Z,00000380,01000600,-000.62,-000.07,0000.30,-001.19,-000.04,-000.03,-000.02,-000.05,0000.05,23.5,00.0,0612.2,30.9
2020-02-17T02:22:00Z,00000380,01000600,0000.28,-000.34,0000.25,-000.56,0000.02,0000.15,0000.15,0000.07,0000.17,23.5,00.0,0612.3,30.9
2020-02-17T02:23:00Z,00000380,01000600,-000.31,0000.12,0000.28,-000.33,0000.40,0000.05,-000.11,0000.02,0000.06,23.5,00.0,0612.3,30.9
2020-02-17T02:24:00Z,00000380,01000600,0000.50,0000.10,-000.02,0000.06,0000.19,0000.16,0000.09,-000.09,-000.10,23.5,00.0,0612.3,30.9
2020-02-17T02:25:00Z,00000380,01000600,0000.80,-000.38,0000.15,-000.24,-000.30,0000.05,-000.02,0000.15,-000.02,23.5,00.0,0612.3,30.9
2020-02-17T02:26:00Z,00000380,01000600,0000.30,-000.10,0000.26,0000.29,0000.38,0000.03,0000.01,0000.01,0000.02,23.5,00.0,0612.3,30.9
2020-02-17T02:27:00Z,00000380,01000600,-000.52,-000.06,0000.23,-000.17,0000.27,0000.40,-000.11,-000.33,-000.14,23.5,00.0,0612.4,30.9
2020-02-17T02:28:00Z,00000380,01000600,0001.07,-000.10,-000.11,0000.03,-000.02,0000.24,0000.02,0000.06,0000.02,23.5,00.0,0612.4,30.9
2020-02-17T02:29:00Z,00000380,01000600,0000.30,0000.01,0000.18,-000.36,0000.12,0000.21,0000.16,0000.03,0000.20,23.5,00.0,0612.4,30.9
2020-02-17T02:30:00Z,00000380,01000600,0000.54,0000.58,0000.07,0000.21,-000.03,-000.08,0000.02,0000.13,-000.01,23.5,00.0,0612.4,30.9
2020-02-17T02:31:00Z,00000380,01000600,0000.20,-000.05,-000.11,-000.99,-000.13,0000.01,-000.11,0000.03,-000.06,23.5,00.0,0612.4,30.9
2020-02-17T02:32:00Z,00000380,01000600,0001.41,0000.12,0000.16,-000.38,-000.05,0000.37,0000.14,0000.09,0000.15,23.5,00.0,0612.4,30.9
2020-02-17T02:33:00Z,00000380,01000600,0000.27,0000.10,0000.75,-000.02,0000.02,0000.42,0000.15,0000.11,-000.07,23.6,00.0,0612.4,30.9
2020-02-17T02:34:00Z,00000380,01000600,-000.21,0000.31,0000.29,-000.37,-000.11,-000.13,-000.17,-000.06,0000.04,23.5,00.0,0612.5,30.9
2020-02-17T02:35:00Z,00000380,01000600,0000.36,0000.47,0000.18,-000.42,0000.01,0000.04,-000.07,0000.01,0000.01,23.6,00.0,0612.5,31.0
2020-02-17T02:36:00Z,00000380,01000600,0000.10,0000.10,0000.07,-000.10,0000.14,0000.15,0000.10,-000.05,0000.01,23.6,00.0,0612.5,31.0
2020-02-17T02:37:00Z,00000380,01000600,-000.40,0000.33,-000.10,-000.74,0000.26,0000.30,-000.09,0000.03,-000.05,23.5,00.0,0612.5,31.0
2020-02-17T02:38:00Z,00000380,01000600,0000.25,0000.07,0000.24,-000.30,0000.44,-000.25,-000.08,0000.00,-000.05,23.6,00.0,0612.5,31.0
2020-02-17T02:39:00Z,00000380,01000600,-000.68,-000.22,0000.33,-000.88,0000.43,-000.05,0000.17,0000.08,0000.06,23.6,00.0,0612.5,30.9
2020-02-17T02:40:00Z,00000380,01000600,0000.47,-000.02,-000.31,-000.68,0000.42,-000.24,0000.08,-000.05,0000.18,23.6,00.0,0612.5,30.9
2020-02-17T02:41:00Z,00000380,01000600,0000.92,-000.18,-000.28,0000.81,-000.23,0000.15,-000.09,0000.09,-000.00,23.6,00.0,0612.5,31.0
2020-02-17T02:42:00Z,00000380,01000600,-000.08,-000.40,0000.19,0000.52,0000.02,0000.07,0000.16,-000.03,-000.02,23.6,00.0,0612.5,31.0
2020-02-17T02:43:00Z,00000380,01000600,0001.22,0000.05,0000.27,-000.11,0000.38,0000.31,-000.14,-000.03,-000.04,23.6,00.0,0612.5,31.0
2020-02-17T02:44:00Z,00000380,01000600,0001.18,-000.17,0000.55,-000.05,0000.26,0000.19,0000.03,0000.14,0000.03,23.6,00.0,0612.6,31.0
2020-02-17T02:45:00Z,00000380,01000600,-000.01,0000.06,0000.15,-000.33,0000.28,0000.17,-000.10,-000.15,-000.14,23.6,00.0,0612.6,31.0
2020-02-17T02:46:00Z,00000380,01000600,0000.11,0000.27,0000.34,0000.44,0000.48,0000.00,-000.00,-000.00,0000.08,23.6,00.0,0612.6,30.9
2020-02-17T02:47:00Z,00000380,01000600,-000.23,0000.09,0000.73,-000.27,0000.27,-000.06,-000.12,-000.00,-000.12,23.6,00.0,0612.6,30.9
2020-02-17T02:48:00Z,00000380,01000600,-000.09,-000.17,0000.20,-000.64,0000.45,-000.01,0000.23,-000.05,0000.06,23.6,00.0,0612.6,30.9
2020-02-17T02:49:00Z,00000380,01000600,0000.97,-000.56,0000.73,0000.23,0000.34,0000.12,-000.01,0000.17,0000.10,23.6,00.0,0612.6,30.9
2020-02-17T02:50:00Z,00000380,01000600,0000.73,-000.07,0000.27,-000.01,0000.49,-000.29,-000.18,-000.02,-000.11,23.6,00.0,0612.7,31.0
2020-02-17T02:51:00Z,00000380,01000600,0000.83,-000.18,-000.05,-000.64,0000.07,-000.22,-000.02,-000.10,0000.10,23.6,00.0,0612.7,31.0
2020-02-17T02:52:00Z,00000380,01000600,0000.48,-000.11,-000.03,-000.87,0000.49,-000.01,0000.14,0000.12,-000.01,23.6,00.0,0612.7,31.0
2020-02-17T02:53:00Z,00000380,01000600,0000.31,-000.52,-000.15,-000.23,-000.03,-000.06,-000.05,0000.14,-000.01,23.6,00.0,0612.7,31.0
2020-02-17T02:54:00Z,00000380,01000600,0000.33,0000.28,0000.35,-000.04,0000.23,0000.43,0000.02,-000.11,0000.07,23.6,00.0,0612.7,31.0
2020-02-17T02:55:00Z,00000380,01000600,0001.14,-000.10,0000.02,-000.32,0000.15,0000.16,-000.02,-000.09,0000.01,23.6,00.0,0612.7,30.9
2020-02-17T02:56:00Z,00000380,01000600,0001.48,-000.26,0000.27,-000.26,-000.03,0000.02,-000.16,-000.01,-000.31,23.6,00.0,0612.7,30.9
2020-02-17T02:57:00Z,00000380,41000600,,,,,,,,,,23.6,00.0,0612.7,30.9
2020-02-17T02:58:00Z,00000380,61000600,,,,,,,,,,23.7,00.0,0611.8,30.9
2020-02-17T02:59:00Z,00000380,21000600,,,,,,,,,,23.8,00.0,0611.8,30.9
2020-02-17T03:00:00Z,00000380,21000600,,,,,,,,,,23.8,00.0,0611.8,30.9
2020-02-17T03:01:00Z,00000380,21000600,,,,,,,,,,23.8,00.0,0611.8,30.9
2020-02-17T03:02:00Z,00000380,21000600,,,,,,,,,,23.8,00.0,0611.8,30.9
2020-02-17T03:03:00Z,00000380,61000600,,,,,,,,,,23.8,00.0,0611.8,31.0
2020-02-17T03:04:00Z,00000380,41000600,-000.23,0000.30,-000.82,-000.15,-000.03,0000.46,0000.12,0000.15,0000.02,23.7,00.0,0612.6,30.9
2020-02-17T03:05:00Z,00000380,01000600,-000.36,-000.33,-000.52,-000.60,-000.07,0000.51,-000.01,0000.09,0000.13,23.7,00.0,0612.6,30.9
2020-02-17T03:06:00Z,00000380,01000600,0000.42,0000.09,-000.71,0000.53,0000.32,0000.40,0000.11,-000.15,-000.04,23.6,00.0,0612.6,30.9
2020-02-17T03:07:00Z,00000380,01000600,0000.48,0000.55,-000.53,-000.06,-000.34,-000.27,0000.07,0000.16,-000.15,23.6,00.0,0612.6,30.9
2020-02-17T03:08:00Z,00000380,01000600,0000.43,0000.08,0000.01,0000.44,0000.34,-000.27,-000.08,0000.00,0000.12,23.6,00.0,0612.6,30.9
2020-02-17T03:09:00Z,00000380,01000600,0000.35,0000.15,-000.18,-000.07,-000.40,-000.10,-000.10,0000.06,0000.02,23.6,00.0,0612.7,30.9
2020-02-17T03:10:00Z,00000380,01000600,0000.78,0000.43,-000.64,0000.02,-000.27,0000.07,0000.15,0000.01,0000.01,23.6,00.0,0612.7,30.9